Сакар

Туркменистан     38°55′31″N   63°45′00″E
темп.,
°C
ветер,
м/с
пор.,
м/с
влажн.,
%
обл.,
%
осадки,
мм/ч
давл.,
гПа
погр.,
м
16 апреля, пт
пт1623:00+22з222285 0.0 101526
02:00+21зсз3324100 0.0 101425
05:00+19ссз33260 0.0 101523
08:00+21сз22190 0.0 101693
11:00+25сз45150 0.0 10171639
14:00+27сз44135 0.0 10162199
17:00+27ссз55165 0.0 10152371
20:00+25с5717100 0.0 1016321
17 апреля, сб
сб1723:00+23ссв48215 0.0 1016206
02:00+20ссв462140 0.0 1016108
05:00+19ссв4523100 0.0 101670
08:00+21ссв462297 0.0 1018215
11:00+24с4618100 0.0 10191262
14:00+26сз9918100 0.0 10182661
17:00+24зсз5624100 0.0 10182439
20:00+23зсз5821100 0.0 1018413
18 апреля, вс
вс1823:00+21з46245 0.0 1019125
02:00+19зсз34305 0.0 101948
05:00+18ссз33330 0.0 102037
08:00+20св231813 0.0 1021104
11:00+25св211256 0.0 10211180
14:00+26с11120 0.0 10192827
17:00+27ссв221092 0.0 10172736
20:00+25ссв35125 0.0 1018161
19 апреля, пн
пн1923:00+23ссв461465 0.0 101797
02:00+21св441652 0.0 101651
05:00+20всв3317100 0.0 101519
08:00+21вюв2316100 0.0 1016121
11:00+25в221248 0.0 1015905
14:00+27св339100 0.0 10132530
17:00+27св449100 0.0 10122382
20:00+25св221150 0.0 101219
20 апреля, вт
вт2023:00+23ссз22145 0.0 101211
02:00+21всв4523100 0.0 101173
05:00+20всв3428100 0.0 101155
08:00+21всв2323100 0.0 1012149
11:00+25сз5517100 0.0 10121225
14:00+27ссз6515100 0.0 10112504
17:00+27ссз661893 0.0 10103032
20:00+24зсз782874 0.0 10101086